Simultaneous Nadir Overpasses (SNOs) Predictions

Prediction of SNOs between LANDSAT-8 and METOP-B Satellite Orbit:

Table of predicted SNOs for the next 14.0 days since TLE Epoch: 1/24/2020
Index Date (LANDSAT-8) Time (LANDSAT-8) Lat,Lon (LANDSAT-8) SZA (LANDSAT-8 ) Date (METOP-B) Time (METOP-B) Lat,Lon (METOP-B) SZA (METOP-B ) Distance(km) Time Diff (sec)
1 01/25/2020 16:35:26 81.09, -29.68 101.66 01/25/2020 16:35:05 81.10, -29.52 101.68 2.91 21
2 01/25/2020 17:24:52 -81.11, 138.29 78.31 01/25/2020 17:25:45 -81.11, 138.22 78.29 1.13 53
3 01/28/2020 12:09:40 81.09, 36.87 100.95 01/28/2020 12:09:29 81.09, 36.75 100.93 1.99 11
4 01/28/2020 12:59:06 -81.12,-155.14 79.01 01/28/2020 13:00:08 -81.12,-155.09 78.98 1.01 62
5 01/31/2020 06:55:19 -79.45, -80.35 82.48 01/31/2020 06:54:06 -79.86, -82.43 82.23 61.54 73
6 01/31/2020 07:43:53 81.10, 103.39 100.19 01/31/2020 07:43:51 81.10, 103.39 100.19 0.03 2
7 01/31/2020 08:33:19 -81.12, -88.60 79.77 01/31/2020 08:34:30 -81.13, -88.41 79.72 3.23 71
8 02/03/2020 02:28:42 -81.08, 1.90 80.65 02/03/2020 02:27:36 -81.08, 1.86 80.68 0.80 66
9 02/03/2020 03:18:07 81.10, 169.89 99.40 02/03/2020 03:18:14 81.11, 170.01 99.41 2.17 7
10 02/05/2020 22:02:56 -81.08, 68.39 81.48 02/05/2020 22:01:59 -81.09, 68.50 81.49 1.82 57




NCC Satellite Simultaneous Nadir Overpasses (SNOs) Prediction Service
